Location: Wien
(48.2082°N, 16.3738°E)
Time: 09:45:11
(UTC+02:00)

DOVE 4 - Visible Passes

Search period start: 14 October 2019 00:00
Search period end: 24 October 2019 00:00
Orbit: 589 x 801 km, 97.8° (Epoch: 14 October)

Date Brightness Start Highest point End Pass type
(mag) Time Alt. Az. Time Alt. Az. Time Alt. Az.
14 Oct ? 02:49:25 10° NNE 02:50:33 16° NE 02:50:33 16° NE visible
14 Oct ? 04:27:01 10° N 04:29:16 23° NNW 04:29:16 23° NNW visible
15 Oct ? 03:29:43 10° NNE 03:31:27 21° NNE 03:31:27 21° NNE visible
15 Oct ? 05:08:30 10° NNW 05:10:11 15° NW 05:10:11 15° NW visible
16 Oct ? 02:33:22 10° NE 02:33:39 11° NE 02:33:39 11° NE visible
16 Oct ? 04:10:29 10° N 04:12:22 22° N 04:12:22 22° N visible
17 Oct ? 03:13:25 10° NNE 03:14:33 17° NNE 03:14:33 17° NNE visible
17 Oct ? 04:51:42 10° N 04:53:17 17° NNW 04:53:17 17° NNW visible
18 Oct ? 03:54:00 10° N 03:55:28 19° N 03:55:28 19° N visible
18 Oct ? 05:34:09 10° NW 05:34:11 10° NW 05:34:11 10° NW visible
19 Oct ? 02:57:11 10° NNE 02:57:38 12° NNE 02:57:38 12° NNE visible
19 Oct ? 04:35:02 10° N 04:36:22 17° NNW 04:36:22 17° NNW visible
20 Oct ? 03:37:35 10° NNE 03:38:32 16° NNE 03:38:32 16° NNE visible
20 Oct ? 05:16:46 10° NNW 05:17:16 11° NNW 05:17:16 11° NNW visible
21 Oct ? 04:18:26 10° N 04:19:27 16° N 04:19:27 16° N visible
22 Oct ? 03:21:14 10° NNE 03:21:37 12° NNE 03:21:37 12° NNE visible
22 Oct ? 04:59:50 10° NNW 05:00:20 12° NNW 05:00:20 12° NNW visible
23 Oct ? 04:01:54 10° N 04:02:31 13° N 04:02:31 13° N visible
